User: anonymous   Login
Location: Dover
(39.1580°N, 75.5250°W)
Time: 12:18:00
(UTC-05:00)
Language:

Cosmos 1437 Rocket - Orbit

View from above orbital plane
View from above orbital plane
View from above satellite
View from above satellite

Ground track
Ground track

The orbit data is extracted from the following two-line orbital elements,

1 13771U 83003B   14353.89859708  .00004765  00000-0  31082-3 0  2030
2 13771 081.1576 331.2616 0030967 137.1943 223.1701 15.07303056736512
Epoch (UTC): 19 December 2014 21:33:58
Eccentricity: 0.0030967
inclination: 81.1576°
perigee height: 523 km
apogee height: 566 km
right ascension of ascending node: 331.2616°
argument of perigee: 137.1943°
revolutions per day: 15.07303056
mean anomaly at epoch: 223.1701°
orbit number at epoch: 73651

The dashed part of the orbit path shows where the satellite is in the earth's shadow,  

DLR